Weather data: current fredag, 2021-04-23 18:40
Date Time Temp. Inne Temp. Ute Temp Altan Solmtare Temp. 4 Temp. 5 Temp. 6 Temp. 7 Temp. 9 RF Ute RF Alt Hum. 3 Hum. 4 RelFuktLekst Rain Wind Direction Direction Sunshine Dew point Wind chill Wind gust
2021-04-23 18:40 21,1 C 12,8 C 20,5 C 38,0 C 0,0 C 0,0 C 11,6 C 8,3 C 0,0 C 34 % 25 % 38 % 0 % 0 % 0,0 mm 5,4 m/s (3 Bft) W-SW 247 0 min -2,7 C 12,8 C 6,8 m/s (4 Bft)
2021-04-23 18:35 21,1 C 13,1 C 21,0 C 38,4 C 0,0 C 0,0 C 11,9 C 8,8 C 0,0 C 33 % 25 % 38 % 0 % 0 % 0,0 mm 4,8 m/s (3 Bft) N-NW 337 0 min -2,8 C 13,1 C 6,6 m/s (4 Bft)
2021-04-23 18:30 21,1 C 13,2 C 21,2 C 38,7 C 0,0 C 0,0 C 12,0 C 9,0 C 0,0 C 33 % 24 % 39 % 0 % 0 % 0,0 mm 4,6 m/s (3 Bft) SW 225 0 min -2,7 C 13,2 C 6,1 m/s (4 Bft)
2021-04-23 18:25 21,2 C 13,6 C 21,7 C 39,2 C 0,0 C 0,0 C 12,3 C 9,1 C 0,0 C 33 % 24 % 40 % 0 % 0 % 0,0 mm 4,8 m/s (3 Bft) W 270 0 min -2,4 C 13,6 C 4,2 m/s (3 Bft)
2021-04-23 18:20 21,2 C 13,8 C 22,0 C 39,4 C 0,0 C 0,0 C 12,4 C 8,8 C 0,0 C 32 % 24 % 40 % 0 % 0 % 0,0 mm 5,5 m/s (4 Bft) W-SW 247 0 min -2,6 C 13,8 C 6,6 m/s (4 Bft)
2021-04-23 18:15 21,2 C 14,0 C 22,5 C 39,6 C 0,0 C 0,0 C 12,6 C 8,9 C 0,0 C 31 % 24 % 40 % 0 % 0 % 0,0 mm 5,6 m/s (4 Bft) W 270 0 min -2,8 C 14,0 C 9,1 m/s (5 Bft)
2021-04-23 18:10 21,2 C 14,5 C 22,9 C 40,1 C 0,0 C 0,0 C 12,7 C 9,1 C 0,0 C 31 % 24 % 41 % 0 % 0 % 0,0 mm 5,5 m/s (4 Bft) W-SW 247 0 min -2,4 C 14,5 C 6,6 m/s (4 Bft)
2021-04-23 18:05 21,2 C 14,6 C 23,3 C 40,6 C 0,0 C 0,0 C 13,0 C 9,1 C 0,0 C 31 % 24 % 42 % 0 % 0 % 0,0 mm 5,5 m/s (4 Bft) W-SW 247 0 min -2,3 C 14,6 C 6,9 m/s (4 Bft)
2021-04-23 18:00 21,2 C 14,6 C 23,6 C 41,1 C 0,0 C 0,0 C 13,1 C 9,2 C 0,0 C 31 % 24 % 43 % 0 % 0 % 0,0 mm 5,6 m/s (4 Bft) W-SW 247 0 min -2,3 C 14,6 C 8,1 m/s (5 Bft)
2021-04-23 17:55 21,2 C 14,8 C 24,1 C 41,6 C 0,0 C 0,0 C 13,3 C 9,7 C 0,0 C 30 % 24 % 44 % 0 % 0 % 0,0 mm 5,1 m/s (3 Bft) W 270 0 min -2,6 C 14,8 C 5,1 m/s (3 Bft)
2021-04-23 17:50 21,2 C 15,1 C 24,4 C 41,7 C 0,0 C 0,0 C 13,6 C 10,0 C 0,0 C 30 % 24 % 44 % 0 % 0 % 0,0 mm 4,7 m/s (3 Bft) W 270 0 min -2,3 C 15,1 C 6,1 m/s (4 Bft)
2021-04-23 17:45 21,4 C 15,3 C 24,9 C 41,8 C 0,0 C 0,0 C 13,6 C 9,8 C 0,0 C 29 % 24 % 44 % 0 % 0 % 0,0 mm 4,8 m/s (3 Bft) W-NW 292 0 min -2,6 C 15,3 C 3,9 m/s (3 Bft)
2021-04-23 17:40 21,4 C 15,3 C 25,3 C 41,9 C 0,0 C 0,0 C 13,6 C 9,6 C 0,0 C 28 % 24 % 44 % 0 % 0 % 0,0 mm 5,5 m/s (4 Bft) W-SW 247 0 min -3,1 C 15,3 C 5,4 m/s (3 Bft)
2021-04-23 17:35 21,4 C 15,3 C 25,7 C 42,3 C 0,0 C 0,0 C 13,5 C 9,2 C 0,0 C 28 % 24 % 45 % 0 % 0 % 0,0 mm 5,8 m/s (4 Bft) W-SW 247 0 min -3,1 C 15,3 C 5,1 m/s (3 Bft)
2021-04-23 17:30 21,4 C 15,7 C 26,0 C 42,8 C 0,0 C 0,0 C 13,8 C 9,3 C 0,0 C 27 % 24 % 45 % 0 % 0 % 0,0 mm 5,9 m/s (4 Bft) W 270 0 min -3,2 C 15,7 C 8,0 m/s (4 Bft)
2021-04-23 17:25 21,5 C 15,7 C 26,4 C 42,4 C 0,0 C 0,0 C 13,7 C 9,1 C 0,0 C 28 % 24 % 45 % 0 % 0 % 0,0 mm 6,1 m/s (4 Bft) W-SW 247 0 min -2,7 C 15,7 C 5,7 m/s (4 Bft)
2021-04-23 17:20 21,5 C 15,8 C 26,7 C 42,5 C 0,0 C 0,0 C 13,9 C 9,2 C 0,0 C 27 % 24 % 45 % 0 % 0 % 0,0 mm 6,0 m/s (4 Bft) W 270 0 min -3,1 C 15,8 C 11,3 m/s (6 Bft)
2021-04-23 17:15 21,5 C 16,3 C 26,8 C 42,4 C 0,0 C 0,0 C 14,3 C 9,6 C 0,0 C 27 % 24 % 45 % 0 % 0 % 0,0 mm 6,1 m/s (4 Bft) W-SW 247 0 min -2,7 C 16,3 C 6,9 m/s (4 Bft)
2021-04-23 17:10 21,5 C 16,3 C 27,0 C 42,4 C 0,0 C 0,0 C 14,3 C 9,7 C 0,0 C 27 % 24 % 45 % 0 % 0 % 0,0 mm 5,7 m/s (4 Bft) W-SW 247 0 min -2,7 C 16,3 C 4,6 m/s (3 Bft)
2021-04-23 17:05 21,5 C 16,6 C 27,1 C 42,3 C 0,0 C 0,0 C 14,6 C 9,9 C 0,0 C 27 % 24 % 45 % 0 % 0 % 0,0 mm 5,7 m/s (4 Bft) W 270 0 min -2,5 C 16,6 C 6,9 m/s (4 Bft)
2021-04-23 17:00 21,5 C 16,5 C 27,1 C 42,2 C 0,0 C 0,0 C 14,3 C 9,8 C 0,0 C 26 % 24 % 45 % 0 % 0 % 0,0 mm 5,8 m/s (4 Bft) W-SW 247 0 min -3,1 C 16,5 C 3,8 m/s (3 Bft)
2021-04-23 16:55 21,5 C 16,7 C 27,3 C 42,2 C 0,0 C 0,0 C 14,4 C 9,8 C 0,0 C 26 % 24 % 45 % 0 % 0 % 0,0 mm 5,8 m/s (4 Bft) W 270 0 min -2,9 C 16,7 C 8,6 m/s (5 Bft)
2021-04-23 16:50 21,5 C 16,8 C 27,2 C 42,2 C 0,0 C 0,0 C 14,5 C 9,8 C 0,0 C 27 % 24 % 45 % 0 % 0 % 0,0 mm 5,6 m/s (4 Bft) W 270 0 min -2,3 C 16,8 C 5,1 m/s (3 Bft)
2021-04-23 16:45 21,6 C 16,7 C 27,3 C 42,1 C 0,0 C 0,0 C 14,6 C 9,8 C 0,0 C 26 % 24 % 44 % 0 % 0 % 0,0 mm 5,5 m/s (4 Bft) SW 225 0 min -2,9 C 16,7 C 7,2 m/s (4 Bft)
2021-04-23 16:40 21,5 C 16,8 C 27,3 C 42,0 C 0,0 C 0,0 C 14,7 C 10,1 C 0,0 C 26 % 24 % 44 % 0 % 0 % 0,0 mm 5,6 m/s (4 Bft) S 180 0 min -2,8 C 16,8 C 6,5 m/s (4 Bft)
2021-04-23 16:35 21,6 C 16,7 C 27,3 C 42,0 C 0,0 C 0,0 C 14,5 C 9,3 C 0,0 C 26 % 24 % 44 % 0 % 0 % 0,0 mm 6,2 m/s (4 Bft) W-NW 292 0 min -2,9 C 16,7 C 3,4 m/s (3 Bft)
2021-04-23 16:30 21,5 C 16,8 C 27,5 C 42,1 C 0,0 C 0,0 C 14,6 C 9,6 C 0,0 C 26 % 24 % 44 % 0 % 0 % 0,0 mm 5,9 m/s (4 Bft) SW 225 0 min -2,8 C 16,8 C 6,2 m/s (4 Bft)
2021-04-23 16:25 21,6 C 17,2 C 27,5 C 42,0 C 0,0 C 0,0 C 14,9 C 9,7 C 0,0 C 26 % 24 % 44 % 0 % 0 % 0,0 mm 6,3 m/s (4 Bft) W 270 0 min -2,5 C 17,2 C 8,1 m/s (5 Bft)
2021-04-23 16:20 21,6 C 17,2 C 27,5 C 42,0 C 0,0 C 0,0 C 14,9 C 9,6 C 0,0 C 26 % 24 % 44 % 0 % 0 % 0,0 mm 6,6 m/s (4 Bft) W-SW 247 0 min -2,5 C 17,2 C 7,2 m/s (4 Bft)
2021-04-23 16:15 21,6 C 17,5 C 27,5 C 41,9 C 0,0 C 0,0 C 15,2 C 9,8 C 0,0 C 26 % 24 % 44 % 0 % 0 % 0,0 mm 6,4 m/s (4 Bft) W-NW 292 0 min -2,2 C 17,5 C 9,5 m/s (5 Bft)
2021-04-23 16:10 21,6 C 17,6 C 27,4 C 41,9 C 0,0 C 0,0 C 15,3 C 9,9 C 0,0 C 25 % 24 % 44 % 0 % 0 % 0,0 mm 6,2 m/s (4 Bft) S 180 0 min -2,6 C 17,6 C 5,9 m/s (4 Bft)
2021-04-23 16:05 21,6 C 17,9 C 27,5 C 41,7 C 0,0 C 0,0 C 15,6 C 10,4 C 0,0 C 25 % 24 % 44 % 0 % 0 % 0,0 mm 5,4 m/s (3 Bft) SW 225 0 min -2,4 C 17,9 C 5,9 m/s (4 Bft)
2021-04-23 16:00 21,7 C 17,9 C 27,5 C 41,6 C 0,0 C 0,0 C 15,5 C 10,3 C 0,0 C 26 % 24 % 44 % 0 % 0 % 0,0 mm 5,1 m/s (3 Bft) W 270 0 min -1,9 C 17,9 C 4,9 m/s (3 Bft)
2021-04-23 15:55 21,8 C 17,3 C 27,5 C 41,6 C 0,0 C 0,0 C 14,8 C 9,4 C 0,0 C 27 % 24 % 44 % 0 % 0 % 0,0 mm 5,8 m/s (4 Bft) W 270 0 min -1,9 C 17,3 C 5,2 m/s (3 Bft)
2021-04-23 15:50 21,8 C 17,4 C 27,7 C 41,5 C 0,0 C 0,0 C 14,8 C 8,9 C 0,0 C 27 % 24 % 43 % 0 % 0 % 0,0 mm 6,3 m/s (4 Bft) S-SE 157 0 min -1,8 C 17,4 C 4,1 m/s (3 Bft)
2021-04-23 15:45 21,8 C 16,9 C 27,9 C 41,4 C 0,0 C 0,0 C 14,5 C 8,7 C 0,0 C 26 % 24 % 43 % 0 % 0 % 0,0 mm 5,9 m/s (4 Bft) W-SW 247 0 min -2,7 C 16,9 C 5,8 m/s (4 Bft)
2021-04-23 15:40 21,9 C 17,6 C 28,2 C 41,5 C 0,0 C 0,0 C 15,2 C 9,3 C 0,0 C 26 % 25 % 43 % 0 % 0 % 0,0 mm 5,3 m/s (3 Bft) S-SW 202 0 min -2,1 C 17,6 C 6,5 m/s (4 Bft)
2021-04-23 15:35 22,0 C 18,2 C 28,6 C 41,8 C 0,0 C 0,0 C 15,7 C 10,3 C 0,0 C 26 % 26 % 44 % 0 % 0 % 0,0 mm 4,7 m/s (3 Bft) W 270 0 min -1,6 C 18,2 C 9,1 m/s (5 Bft)
2021-04-23 15:30 22,0 C 18,3 C 28,8 C 41,5 C 0,0 C 0,0 C 15,7 C 10,2 C 0,0 C 26 % 26 % 43 % 0 % 0 % 0,0 mm 4,6 m/s (3 Bft) W-SW 247 0 min -1,5 C 18,3 C 7,7 m/s (4 Bft)
2021-04-23 15:25 22,0 C 18,7 C 29,0 C 42,0 C 0,0 C 0,0 C 15,9 C 9,9 C 0,0 C 26 % 26 % 44 % 0 % 0 % 0,0 mm 5,3 m/s (3 Bft) NW 315 0 min -1,2 C 18,7 C 2,5 m/s (2 Bft)
2021-04-23 15:20 22,1 C 18,5 C 29,2 C 41,7 C 0,0 C 0,0 C 15,6 C 9,2 C 0,0 C 25 % 26 % 44 % 0 % 0 % 0,0 mm 5,8 m/s (4 Bft) E 90 0 min -1,9 C 18,5 C 5,0 m/s (3 Bft)
2021-04-23 15:15 22,1 C 18,0 C 29,6 C 41,5 C 0,0 C 0,0 C 15,4 C 9,4 C 0,0 C 25 % 26 % 43 % 0 % 0 % 0,0 mm 5,1 m/s (3 Bft) W-SW 247 0 min -2,3 C 18,0 C 5,0 m/s (3 Bft)
2021-04-23 15:10 22,2 C 19,0 C 29,9 C 42,4 C 0,0 C 0,0 C 16,2 C 10,4 C 0,0 C 25 % 26 % 45 % 0 % 0 % 0,0 mm 4,5 m/s (3 Bft) W 270 0 min -1,5 C 19,0 C 3,5 m/s (3 Bft)
2021-04-23 15:05 22,2 C 19,0 C 30,0 C 41,6 C 0,0 C 0,0 C 16,0 C 9,3 C 0,0 C 24 % 26 % 44 % 0 % 0 % 0,0 mm 5,5 m/s (4 Bft) W-SW 247 0 min -2,0 C 19,0 C 5,4 m/s (3 Bft)
2021-04-23 15:00 22,2 C 18,5 C 30,1 C 41,6 C 0,0 C 0,0 C 15,7 C 9,1 C 0,0 C 24 % 27 % 44 % 0 % 0 % 0,0 mm 5,9 m/s (4 Bft) W-NW 292 0 min -2,4 C 18,5 C 5,1 m/s (3 Bft)
2021-04-23 14:55 22,2 C 18,8 C 30,1 C 41,7 C 0,0 C 0,0 C 16,1 C 10,1 C 0,0 C 24 % 27 % 44 % 0 % 0 % 0,0 mm 5,3 m/s (3 Bft) W-SW 247 0 min -2,2 C 18,8 C 7,5 m/s (4 Bft)
2021-04-23 14:50 22,2 C 19,4 C 30,1 C 41,8 C 0,0 C 0,0 C 16,6 C 10,3 C 0,0 C 23 % 27 % 44 % 0 % 0 % 0,0 mm 5,1 m/s (3 Bft) NW 315 0 min -2,3 C 19,4 C 6,7 m/s (4 Bft)
2021-04-23 14:45 22,1 C 19,6 C 29,8 C 42,0 C 0,0 C 0,0 C 16,7 C 10,6 C 0,0 C 22 % 28 % 44 % 0 % 0 % 0,0 mm 5,3 m/s (3 Bft) SW 225 0 min -2,7 C 19,6 C 5,1 m/s (3 Bft)
2021-04-23 14:40 22,1 C 19,9 C 29,9 C 41,8 C 0,0 C 0,0 C 16,8 C 10,1 C 0,0 C 20 % 28 % 44 % 0 % 0 % 0,0 mm 5,5 m/s (4 Bft) W-SW 247 0 min -3,7 C 19,9 C 3,8 m/s (3 Bft)
2021-04-23 14:35 22,1 C 19,4 C 29,7 C 41,8 C 0,0 C 0,0 C 16,4 C 9,9 C 0,0 C 20 % 28 % 44 % 0 % 0 % 0,0 mm 5,6 m/s (4 Bft) W 270 0 min -4,1 C 19,4 C 5,3 m/s (3 Bft)
2021-04-23 14:30 22,1 C 19,2 C 29,5 C 41,7 C 0,0 C 0,0 C 16,4 C 9,8 C 0,0 C 20 % 28 % 44 % 0 % 0 % 0,0 mm 6,1 m/s (4 Bft) W-SW 247 0 min -4,3 C 19,2 C 6,7 m/s (4 Bft)
2021-04-23 14:25 22,0 C 19,4 C 29,4 C 41,7 C 0,0 C 0,0 C 16,7 C 10,5 C 0,0 C 20 % 28 % 44 % 0 % 0 % 0,0 mm 5,7 m/s (4 Bft) W 270 0 min -4,1 C 19,4 C 7,9 m/s (4 Bft)
2021-04-23 14:20 22,0 C 19,7 C 29,2 C 41,8 C 0,0 C 0,0 C 16,9 C 11,2 C 0,0 C 23 % 28 % 44 % 0 % 0 % 0,0 mm 4,8 m/s (3 Bft) W-SW 247 0 min -2,0 C 19,7 C 9,5 m/s (5 Bft)
2021-04-23 14:15 22,0 C 19,3 C 29,1 C 41,7 C 0,0 C 0,0 C 16,5 C 10,5 C 0,0 C 20 % 29 % 44 % 0 % 0 % 0,0 mm 5,4 m/s (3 Bft) W-SW 247 0 min -4,2 C 19,3 C 6,6 m/s (4 Bft)
2021-04-23 14:10 21,9 C 19,5 C 28,8 C 41,7 C 0,0 C 0,0 C 16,3 C 9,9 C 0,0 C 22 % 29 % 44 % 0 % 0 % 0,0 mm 6,1 m/s (4 Bft) W-SW 247 0 min -2,8 C 19,5 C 5,7 m/s (4 Bft)
2021-04-23 14:05 21,9 C 19,1 C 28,7 C 41,6 C 0,0 C 0,0 C 16,0 C 9,9 C 0,0 C 22 % 29 % 44 % 0 % 0 % 0,0 mm 6,2 m/s (4 Bft) W-SW 247 0 min -3,1 C 19,1 C 5,2 m/s (3 Bft)
2021-04-23 14:00 21,9 C 19,5 C 28,5 C 41,6 C 0,0 C 0,0 C 16,5 C 9,9 C 0,0 C 22 % 29 % 44 % 0 % 0 % 0,0 mm 5,9 m/s (4 Bft) W-SW 247 0 min -2,8 C 19,5 C 6,6 m/s (4 Bft)
2021-04-23 13:55 21,8 C 19,2 C 28,2 C 41,6 C 0,0 C 0,0 C 16,2 C 9,7 C 0,0 C 23 % 29 % 44 % 0 % 0 % 0,0 mm 6,1 m/s (4 Bft) W-SW 247 0 min -2,4 C 19,2 C 7,6 m/s (4 Bft)
2021-04-23 13:50 21,8 C 19,1 C 28,1 C 41,5 C 0,0 C 0,0 C 16,0 C 9,2 C 0,0 C 24 % 30 % 43 % 0 % 0 % 0,0 mm 6,8 m/s (4 Bft) W-SW 247 0 min -1,9 C 19,1 C 9,1 m/s (5 Bft)
2021-04-23 13:45 21,7 C 19,1 C 27,9 C 41,5 C 0,0 C 0,0 C 16,0 C 8,9 C 0,0 C 23 % 30 % 43 % 0 % 0 % 0,0 mm 7,3 m/s (4 Bft) W-SW 247 0 min -2,5 C 19,1 C 7,9 m/s (4 Bft)
2021-04-23 13:40 21,7 C 18,9 C 27,7 C 41,5 C 0,0 C 0,0 C 16,1 C 9,4 C 0,0 C 24 % 30 % 43 % 0 % 0 % 0,0 mm 7,1 m/s (4 Bft) W-SW 247 0 min -2,1 C 18,9 C 11,7 m/s (6 Bft)
2021-04-23 13:35 21,6 C 19,1 C 27,3 C 41,6 C 0,0 C 0,0 C 16,3 C 10,0 C 0,0 C 24 % 31 % 44 % 0 % 0 % 0,0 mm 6,2 m/s (4 Bft) W-SW 247 0 min -1,9 C 19,1 C 5,3 m/s (3 Bft)
2021-04-23 13:30 21,6 C 19,3 C 27,1 C 41,6 C 0,0 C 0,0 C 16,4 C 10,1 C 0,0 C 25 % 31 % 44 % 0 % 0 % 0,0 mm 5,9 m/s (4 Bft) SW 225 0 min -1,2 C 19,3 C 4,0 m/s (3 Bft)
2021-04-23 13:25 21,5 C 19,3 C 26,7 C 41,5 C 0,0 C 0,0 C 16,3 C 9,8 C 0,0 C 24 % 31 % 43 % 0 % 0 % 0,0 mm 6,4 m/s (4 Bft) W-NW 292 0 min -1,8 C 19,3 C 5,0 m/s (3 Bft)
2021-04-23 13:20 21,5 C 19,1 C 26,5 C 41,3 C 0,0 C 0,0 C 16,2 C 9,6 C 0,0 C 24 % 31 % 43 % 0 % 0 % 0,0 mm 6,6 m/s (4 Bft) W 270 0 min -1,9 C 19,1 C 6,2 m/s (4 Bft)
2021-04-23 13:15 21,4 C 18,7 C 26,0 C 41,3 C 0,0 C 0,0 C 15,9 C 9,5 C 0,0 C 25 % 32 % 43 % 0 % 0 % 0,0 mm 6,3 m/s (4 Bft) W-NW 292 0 min -1,7 C 18,7 C 6,8 m/s (4 Bft)
2021-04-23 13:10 21,4 C 18,8 C 25,9 C 41,3 C 0,0 C 0,0 C 15,9 C 9,4 C 0,0 C 25 % 32 % 43 % 0 % 0 % 0,0 mm 6,2 m/s (4 Bft) W-SW 247 0 min -1,6 C 18,8 C 8,8 m/s (5 Bft)
2021-04-23 13:05 21,2 C 18,7 C 25,4 C 41,3 C 0,0 C 0,0 C 16,0 C 9,6 C 0,0 C 26 % 32 % 43 % 0 % 0 % 0,0 mm 5,4 m/s (3 Bft) W-SW 247 0 min -1,2 C 18,7 C 4,3 m/s (3 Bft)
2021-04-23 13:00 21,2 C 18,8 C 25,3 C 41,2 C 0,0 C 0,0 C 16,1 C 10,3 C 0,0 C 26 % 32 % 43 % 0 % 0 % 0,0 mm 5,3 m/s (3 Bft) W 270 0 min -1,1 C 18,8 C 6,6 m/s (4 Bft)
2021-04-23 12:55 21,3 C 19,1 C 24,8 C 41,4 C 0,0 C 0,0 C 16,2 C 9,8 C 0,0 C 26 % 32 % 43 % 0 % 0 % 0,0 mm 5,8 m/s (4 Bft) W-SW 247 0 min -0,8 C 19,1 C 6,3 m/s (4 Bft)
2021-04-23 12:50 21,2 C 18,3 C 24,5 C 41,3 C 0,0 C 0,0 C 15,6 C 9,3 C 0,0 C 27 % 32 % 43 % 0 % 0 % 0,0 mm 5,9 m/s (4 Bft) N-NW 337 0 min -1,0 C 18,3 C 4,3 m/s (3 Bft)
2021-04-23 12:45 21,2 C 17,8 C 24,1 C 41,2 C 0,0 C 0,0 C 15,3 C 9,7 C 0,0 C 26 % 33 % 43 % 0 % 0 % 0,0 mm 6,2 m/s (4 Bft) W-NW 292 0 min -1,9 C 17,8 C 4,6 m/s (3 Bft)
2021-04-23 12:40 21,2 C 17,7 C 23,9 C 41,2 C 0,0 C 0,0 C 15,1 C 9,4 C 0,0 C 25 % 33 % 43 % 0 % 0 % 0,0 mm 5,9 m/s (4 Bft) W-SW 247 0 min -2,6 C 17,7 C 10,8 m/s (5 Bft)
2021-04-23 12:35 21,2 C 17,7 C 23,6 C 41,2 C 0,0 C 0,0 C 15,0 C 8,9 C 0,0 C 27 % 33 % 43 % 0 % 0 % 0,0 mm 4,7 m/s (3 Bft) W-SW 247 0 min -1,5 C 17,7 C 7,0 m/s (4 Bft)
2021-04-23 12:30 21,2 C 17,4 C 23,4 C 41,4 C 0,0 C 0,0 C 14,9 C 9,2 C 0,0 C 26 % 33 % 43 % 0 % 0 % 0,0 mm 4,6 m/s (3 Bft) W-SW 247 0 min -2,3 C 17,4 C 5,3 m/s (3 Bft)
2021-04-23 12:25 21,1 C 17,9 C 23,2 C 41,8 C 0,0 C 0,0 C 15,4 C 9,6 C 0,0 C 25 % 34 % 44 % 0 % 0 % 0,0 mm 4,5 m/s (3 Bft) SW 225 0 min -2,4 C 17,9 C 7,3 m/s (4 Bft)
2021-04-23 12:20 21,1 C 18,5 C 23,2 C 41,6 C 0,0 C 0,0 C 16,1 C 10,6 C 0,0 C 26 % 34 % 44 % 0 % 0 % 0,0 mm 4,6 m/s (3 Bft) W-SW 247 0 min -1,4 C 18,5 C 3,9 m/s (3 Bft)
2021-04-23 12:15 21,1 C 19,3 C 22,8 C 41,4 C 0,0 C 0,0 C 16,6 C 10,8 C 0,0 C 25 % 34 % 43 % 0 % 0 % 0,0 mm 4,8 m/s (3 Bft) S-SW 202 0 min -1,2 C 19,3 C 6,4 m/s (4 Bft)
2021-04-23 12:10 21,0 C 19,1 C 22,6 C 41,3 C 0,0 C 0,0 C 16,4 C 10,7 C 0,0 C 24 % 35 % 43 % 0 % 0 % 0,0 mm 5,2 m/s (3 Bft) SW 225 0 min -1,9 C 19,1 C 7,4 m/s (4 Bft)
2021-04-23 12:05 21,0 C 18,6 C 22,2 C 41,4 C 0,0 C 0,0 C 16,0 C 10,3 C 0,0 C 25 % 35 % 43 % 0 % 0 % 0,0 mm 5,6 m/s (4 Bft) NW 315 0 min -1,8 C 18,6 C 7,4 m/s (4 Bft)
2021-04-23 12:00 21,0 C 18,3 C 21,9 C 41,3 C 0,0 C 0,0 C 15,9 C 10,4 C 0,0 C 25 % 35 % 43 % 0 % 0 % 0,0 mm 5,4 m/s (3 Bft) W-SW 247 0 min -2,1 C 18,3 C 7,6 m/s (4 Bft)
2021-04-23 11:55 20,9 C 18,3 C 21,5 C 41,2 C 0,0 C 0,0 C 16,0 C 10,7 C 0,0 C 26 % 35 % 43 % 0 % 0 % 0,0 mm 4,9 m/s (3 Bft) S-SW 202 0 min -1,5 C 18,3 C 3,8 m/s (3 Bft)
2021-04-23 11:50 20,9 C 18,6 C 21,2 C 41,1 C 0,0 C 0,0 C 16,3 C 11,2 C 0,0 C 26 % 36 % 43 % 0 % 0 % 0,0 mm 4,6 m/s (3 Bft) SW 225 0 min -1,3 C 18,6 C 7,1 m/s (4 Bft)
2021-04-23 11:45 20,9 C 19,1 C 20,9 C 41,2 C 0,0 C 0,0 C 16,7 C 11,5 C 0,0 C 25 % 36 % 43 % 0 % 0 % 0,0 mm 4,4 m/s (3 Bft) W 270 0 min -1,4 C 19,1 C 4,3 m/s (3 Bft)
2021-04-23 11:40 20,8 C 18,7 C 20,4 C 41,2 C 0,0 C 0,0 C 16,3 C 11,1 C 0,0 C 25 % 36 % 43 % 0 % 0 % 0,0 mm 4,5 m/s (3 Bft) W-SW 247 0 min -1,7 C 18,7 C 4,5 m/s (3 Bft)
2021-04-23 11:35 20,8 C 18,4 C 20,0 C 41,2 C 0,0 C 0,0 C 15,8 C 10,6 C 0,0 C 25 % 36 % 43 % 0 % 0 % 0,0 mm 4,8 m/s (3 Bft) N 360 0 min -2,0 C 18,4 C 6,1 m/s (4 Bft)
2021-04-23 11:30 20,8 C 18,3 C 19,6 C 41,0 C 0,0 C 0,0 C 15,9 C 10,6 C 0,0 C 24 % 37 % 43 % 0 % 0 % 0,0 mm 4,8 m/s (3 Bft) W-NW 292 0 min -2,6 C 18,3 C 5,4 m/s (3 Bft)
2021-04-23 11:25 20,8 C 18,3 C 19,1 C 41,0 C 0,0 C 0,0 C 16,0 C 10,9 C 0,0 C 25 % 37 % 43 % 0 % 0 % 0,0 mm 4,3 m/s (3 Bft) W 270 0 min -2,1 C 18,3 C 5,4 m/s (3 Bft)
2021-04-23 11:20 20,8 C 18,1 C 18,7 C 40,9 C 0,0 C 0,0 C 15,8 C 11,0 C 0,0 C 26 % 37 % 42 % 0 % 0 % 0,0 mm 4,2 m/s (3 Bft) SW 225 0 min -1,7 C 18,1 C 3,7 m/s (3 Bft)
2021-04-23 11:15 20,8 C 17,3 C 18,3 C 40,9 C 0,0 C 0,0 C 15,1 C 10,3 C 0,0 C 25 % 37 % 42 % 0 % 0 % 0,0 mm 4,8 m/s (3 Bft) NW 315 0 min -2,9 C 17,3 C 5,8 m/s (4 Bft)
2021-04-23 11:10 20,8 C 17,2 C 17,9 C 40,8 C 0,0 C 0,0 C 15,1 C 10,2 C 0,0 C 25 % 38 % 42 % 0 % 0 % 0,0 mm 4,7 m/s (3 Bft) SW 225 0 min -3,0 C 17,2 C 2,8 m/s (2 Bft)
2021-04-23 11:05 20,8 C 17,1 C 17,4 C 40,7 C 0,0 C 0,0 C 15,0 C 10,4 C 0,0 C 25 % 38 % 42 % 0 % 0 % 0,0 mm 4,5 m/s (3 Bft) W-NW 292 0 min -3,1 C 17,1 C 4,5 m/s (3 Bft)
2021-04-23 11:00 20,8 C 16,8 C 16,9 C 40,7 C 0,0 C 0,0 C 14,8 C 10,3 C 0,0 C 26 % 38 % 42 % 0 % 0 % 0,0 mm 4,9 m/s (3 Bft) NW 315 0 min -2,8 C 16,8 C 7,8 m/s (4 Bft)
2021-04-23 10:55 20,8 C 16,8 C 16,5 C 40,6 C 0,0 C 0,0 C 14,8 C 10,2 C 0,0 C 26 % 38 % 42 % 0 % 0 % 0,0 mm 5,1 m/s (3 Bft) W-SW 247 0 min -2,8 C 16,8 C 3,2 m/s (2 Bft)
2021-04-23 10:50 20,8 C 16,7 C 16,3 C 40,6 C 0,0 C 0,0 C 14,8 C 10,5 C 0,0 C 27 % 39 % 42 % 0 % 0 % 0,0 mm 4,9 m/s (3 Bft) W 270 0 min -2,4 C 16,7 C 4,5 m/s (3 Bft)
2021-04-23 10:45 20,8 C 16,4 C 15,7 C 40,6 C 0,0 C 0,0 C 14,7 C 10,8 C 0,0 C 28 % 39 % 42 % 0 % 0 % 0,0 mm 4,4 m/s (3 Bft) S-SE 157 0 min -2,1 C 16,4 C 2,8 m/s (2 Bft)
2021-04-23 10:40 20,8 C 16,3 C 15,5 C 40,5 C 0,0 C 0,0 C 14,7 C 10,9 C 0,0 C 28 % 39 % 42 % 0 % 0 % 0,0 mm 4,5 m/s (3 Bft) W-NW 292 0 min -2,2 C 16,3 C 10,6 m/s (5 Bft)
2021-04-23 10:35 20,7 C 16,3 C 15,2 C 40,3 C 0,0 C 0,0 C 14,7 C 11,0 C 0,0 C 28 % 39 % 41 % 0 % 0 % 0,0 mm 4,6 m/s (3 Bft) S 180 0 min -2,2 C 16,3 C 6,4 m/s (4 Bft)
2021-04-23 10:30 20,7 C 16,0 C 14,7 C 40,3 C 0,0 C 0,0 C 14,5 C 11,1 C 0,0 C 30 % 39 % 41 % 0 % 0 % 0,0 mm 4,3 m/s (3 Bft) SW 225 0 min -1,6 C 16,0 C 10,4 m/s (5 Bft)
2021-04-23 10:25 20,7 C 15,9 C 14,2 C 40,3 C 0,0 C 0,0 C 14,5 C 11,4 C 0,0 C 32 % 40 % 41 % 0 % 0 % 0,0 mm 3,8 m/s (3 Bft) W 270 0 min -0,8 C 15,9 C 2,1 m/s (2 Bft)
2021-04-23 10:20 20,7 C 15,6 C 13,9 C 40,3 C 0,0 C 0,0 C 14,3 C 11,2 C 0,0 C 31 % 40 % 41 % 0 % 0 % 0,0 mm 3,9 m/s (3 Bft) W-SW 247 0 min -1,5 C 15,6 C 3,8 m/s (3 Bft)
2021-04-23 10:15 20,6 C 15,3 C 13,4 C 40,1 C 0,0 C 0,0 C 14,1 C 11,3 C 0,0 C 33 % 40 % 41 % 0 % 0 % 0,0 mm 3,4 m/s (3 Bft) NW 315 0 min -0,9 C 15,3 C 3,8 m/s (3 Bft)
2021-04-23 10:10 20,6 C 15,1 C 13,3 C 40,1 C 0,0 C 0,0 C 13,9 C 11,5 C 0,0 C 33 % 40 % 41 % 0 % 0 % 0,0 mm 3,6 m/s (3 Bft) N-NW 337 0 min -1,0 C 15,1 C 3,4 m/s (2 Bft)
2021-04-23 10:05 20,6 C 14,5 C 12,8 C 40,0 C 0,0 C 0,0 C 13,4 C 10,8 C 0,0 C 32 % 40 % 41 % 0 % 0 % 0,0 mm 4,1 m/s (3 Bft) W-SW 247 0 min -2,0 C 14,5 C 5,0 m/s (3 Bft)
2021-04-23 10:00 20,5 C 14,1 C 12,5 C 39,9 C 0,0 C 0,0 C 12,8 C 10,3 C 0,0 C 34 % 40 % 41 % 0 % 0 % 0,0 mm 4,3 m/s (3 Bft) W-SW 247 0 min -1,5 C 14,1 C 9,1 m/s (5 Bft)
2021-04-23 09:55 20,5 C 13,8 C 12,1 C 39,8 C 0,0 C 0,0 C 12,8 C 10,3 C 0,0 C 34 % 40 % 41 % 0 % 0 % 0,0 mm 4,3 m/s (3 Bft) W-SW 247 0 min -1,8 C 13,8 C 4,0 m/s (3 Bft)
2021-04-23 09:50 20,5 C 13,6 C 11,9 C 39,8 C 0,0 C 0,0 C 12,5 C 10,4 C 0,0 C 36 % 40 % 41 % 0 % 0 % 0,0 mm 4,1 m/s (3 Bft) W 270 0 min -1,2 C 13,6 C 4,2 m/s (3 Bft)
2021-04-23 09:45 20,5 C 13,3 C 11,5 C 39,6 C 0,0 C 0,0 C 12,6 C 10,4 C 0,0 C 37 % 41 % 40 % 0 % 0 % 0,0 mm 4,0 m/s (3 Bft) NW 315 0 min -1,1 C 13,3 C 3,7 m/s (3 Bft)
2021-04-23 09:40 20,4 C 13,2 C 11,2 C 39,6 C 0,0 C 0,0 C 12,6 C 11,1 C 0,0 C 38 % 41 % 40 % 0 % 0 % 0,0 mm 3,5 m/s (3 Bft) W-SW 247 0 min -0,8 C 13,2 C 7,1 m/s (4 Bft)
2021-04-23 09:35 20,4 C 12,8 C 10,9 C 39,6 C 0,0 C 0,0 C 12,4 C 11,2 C 0,0 C 40 % 41 % 40 % 0 % 0 % 0,0 mm 3,2 m/s (2 Bft) W 270 0 min -0,5 C 12,8 C 5,1 m/s (3 Bft)
2021-04-23 09:30 20,4 C 12,7 C 10,6 C 39,5 C 0,0 C 0,0 C 12,3 C 11,4 C 0,0 C 41 % 41 % 40 % 0 % 0 % 0,0 mm 3,1 m/s (2 Bft) W 270 0 min -0,2 C 12,7 C 4,1 m/s (3 Bft)
2021-04-23 09:25 20,4 C 12,2 C 10,4 C 39,5 C 0,0 C 0,0 C 12,0 C 11,2 C 0,0 C 43 % 41 % 40 % 0 % 0 % 0,0 mm 3,5 m/s (3 Bft) W-SW 247 0 min -0,0 C 12,2 C 1,8 m/s (2 Bft)
2021-04-23 09:20 20,2 C 11,9 C 10,3 C 39,4 C 0,0 C 0,0 C 11,8 C 11,0 C 0,0 C 43 % 41 % 40 % 0 % 0 % 0,0 mm 3,6 m/s (3 Bft) W 270 0 min -0,3 C 11,9 C 7,0 m/s (4 Bft)
2021-04-23 09:15 20,3 C 11,6 C 9,9 C 39,3 C 0,0 C 0,0 C 11,7 C 11,6 C 0,0 C 45 % 41 % 40 % 0 % 0 % 0,0 mm 2,9 m/s (2 Bft) W 270 0 min 0,1 C 11,6 C 5,3 m/s (3 Bft)
2021-04-23 09:10 20,3 C 11,3 C 9,8 C 39,2 C 0,0 C 0,0 C 11,2 C 11,1 C 0,0 C 47 % 41 % 40 % 0 % 0 % 0,0 mm 2,7 m/s (2 Bft) W 270 0 min 0,4 C 11,3 C 3,1 m/s (2 Bft)
2021-04-23 09:05 20,2 C 10,6 C 9,6 C 39,1 C 0,0 C 0,0 C 10,4 C 9,7 C 0,0 C 48 % 40 % 39 % 0 % 0 % 0,0 mm 3,4 m/s (2 Bft) W 270 0 min 0,1 C 10,6 C 3,7 m/s (3 Bft)
2021-04-23 09:00 20,2 C 10,4 C 9,5 C 39,1 C 0,0 C 0,0 C 10,2 C 9,5 C 0,0 C 48 % 40 % 39 % 0 % 0 % 0,0 mm 3,4 m/s (3 Bft) W-SW 247 0 min -0,1 C 10,4 C 3,7 m/s (3 Bft)
2021-04-23 08:55 20,2 C 10,1 C 9,3 C 38,9 C 0,0 C 0,0 C 9,9 C 9,1 C 0,0 C 50 % 40 % 39 % 0 % 0 % 0,0 mm 3,8 m/s (3 Bft) W-SW 247 0 min 0,2 C 10,1 C 4,4 m/s (3 Bft)
2021-04-23 08:50 20,2 C 9,7 C 9,3 C 39,1 C 0,0 C 0,0 C 9,7 C 9,2 C 0,0 C 51 % 40 % 39 % 0 % 0 % 0,0 mm 3,5 m/s (3 Bft) W-SW 247 0 min 0,1 C 7,9 C 6,0 m/s (4 Bft)
2021-04-23 08:45 20,2 C 9,3 C 9,1 C 38,8 C 0,0 C 0,0 C 9,6 C 9,4 C 0,0 C 53 % 40 % 39 % 0 % 0 % 0,0 mm 3,2 m/s (2 Bft) W 270 0 min 0,2 C 7,5 C 3,2 m/s (2 Bft)
2021-04-23 08:40 20,2 C 8,9 C 9,0 C 38,8 C 0,0 C 0,0 C 9,3 C 8,8 C 0,0 C 54 % 40 % 39 % 0 % 0 % 0,0 mm 3,5 m/s (3 Bft) W-SW 247 0 min 0,1 C 6,9 C 3,0 m/s (2 Bft)
2021-04-23 08:35 20,1 C 8,5 C 9,0 C 38,7 C 0,0 C 0,0 C 9,4 C 9,0 C 0,0 C 56 % 40 % 39 % 0 % 0 % 0,0 mm 3,2 m/s (2 Bft) W 270 0 min 0,2 C 6,6 C 3,5 m/s (3 Bft)
2021-04-23 08:30 20,1 C 8,3 C 8,9 C 38,7 C 0,0 C 0,0 C 9,4 C 9,1 C 0,0 C 57 % 40 % 39 % 0 % 0 % 0,0 mm 2,9 m/s (2 Bft) W 270 0 min 0,3 C 6,5 C 4,6 m/s (3 Bft)
2021-04-23 08:25 20,1 C 8,0 C 8,8 C 38,7 C 0,0 C 0,0 C 9,2 C 8,8 C 0,0 C 60 % 40 % 39 % 0 % 0 % 0,0 mm 2,9 m/s (2 Bft) W 270 0 min 0,7 C 6,1 C 3,7 m/s (3 Bft)
2021-04-23 08:20 20,1 C 7,9 C 8,8 C 38,7 C 0,0 C 0,0 C 9,1 C 8,7 C 0,0 C 61 % 40 % 39 % 0 % 0 % 0,0 mm 3,0 m/s (2 Bft) W-SW 247 0 min 0,9 C 6,0 C 5,5 m/s (3 Bft)
2021-04-23 08:15 20,1 C 7,5 C 8,8 C 38,6 C 0,0 C 0,0 C 8,6 C 8,6 C 0,0 C 62 % 40 % 39 % 0 % 0 % 0,0 mm 2,8 m/s (2 Bft) NW 315 0 min 0,7 C 5,6 C 2,4 m/s (2 Bft)
2021-04-23 08:10 20,1 C 7,3 C 8,7 C 38,5 C 0,0 C 0,0 C 8,8 C 8,6 C 0,0 C 63 % 40 % 38 % 0 % 0 % 0,0 mm 2,6 m/s (2 Bft) NW 315 0 min 0,7 C 5,5 C 1,6 m/s (2 Bft)
2021-04-23 08:05 20,1 C 7,1 C 8,7 C 38,5 C 0,0 C 0,0 C 8,5 C 8,2 C 0,0 C 64 % 40 % 38 % 0 % 0 % 0,0 mm 2,7 m/s (2 Bft) N-NE 22 0 min 0,8 C 5,2 C 1,7 m/s (2 Bft)
2021-04-23 08:00 20,1 C 7,1 C 8,7 C 38,3 C 0,0 C 0,0 C 8,6 C 8,1 C 0,0 C 64 % 40 % 38 % 0 % 0 % 0,0 mm 2,7 m/s (2 Bft) SW 225 0 min 0,8 C 5,2 C 1,7 m/s (2 Bft)
2021-04-23 07:55 20,1 C 6,9 C 8,6 C 38,0 C 0,0 C 0,0 C 8,5 C 8,5 C 0,0 C 65 % 40 % 38 % 0 % 0 % 0,0 mm 2,1 m/s (2 Bft) W-NW 292 0 min 0,8 C 5,4 C 2,1 m/s (2 Bft)
2021-04-23 07:50 20,1 C 6,8 C 8,6 C 38,1 C 0,0 C 0,0 C 8,4 C 8,4 C 0,0 C 67 % 40 % 38 % 0 % 0 % 0,0 mm 2,2 m/s (2 Bft) NW 315 0 min 1,1 C 5,3 C 2,2 m/s (2 Bft)
2021-04-23 07:45 20,1 C 6,5 C 8,7 C 38,2 C 0,0 C 0,0 C 7,7 C 7,7 C 0,0 C 67 % 40 % 38 % 0 % 0 % 0,0 mm 2,3 m/s (2 Bft) N 360 0 min 0,8 C 4,8 C 2,2 m/s (2 Bft)
2021-04-23 07:40 20,1 C 6,4 C 8,6 C 38,1 C 0,0 C 0,0 C 7,7 C 7,7 C 0,0 C 68 % 40 % 38 % 0 % 0 % 0,0 mm 2,2 m/s (2 Bft) SW 225 0 min 0,9 C 4,8 C 2,7 m/s (2 Bft)
2021-04-23 07:35 20,1 C 6,3 C 8,7 C 37,7 C 0,0 C 0,0 C 7,4 C 7,4 C 0,0 C 70 % 40 % 37 % 0 % 0 % 0,0 mm 2,3 m/s (2 Bft) W-NW 292 0 min 1,2 C 4,6 C 1,3 m/s (1 Bft)
2021-04-23 07:30 20,1 C 6,2 C 8,7 C 37,1 C 0,0 C 0,0 C 7,1 C 7,1 C 0,0 C 70 % 40 % 36 % 0 % 0 % 0,0 mm 2,5 m/s (2 Bft) W-NW 292 0 min 1,1 C 4,3 C 5,0 m/s (3 Bft)
2021-04-23 07:25 20,1 C 6,1 C 8,7 C 37,0 C 0,0 C 0,0 C 6,6 C 6,6 C 0,0 C 71 % 40 % 36 % 0 % 0 % 0,0 mm 2,5 m/s (2 Bft) W 270 0 min 1,2 C 4,2 C 2,9 m/s (2 Bft)
2021-04-23 07:20 20,1 C 6,0 C 8,6 C 36,8 C 0,0 C 0,0 C 6,4 C 6,4 C 0,0 C 72 % 40 % 36 % 0 % 0 % 0,0 mm 2,5 m/s (2 Bft) NW 315 0 min 1,3 C 4,1 C 2,0 m/s (2 Bft)
2021-04-23 07:15 20,2 C 5,9 C 8,6 C 35,6 C 0,0 C 0,0 C 6,3 C 5,8 C 0,0 C 73 % 40 % 34 % 0 % 0 % 0,0 mm 2,8 m/s (2 Bft) NW 315 0 min 1,4 C 3,7 C 3,3 m/s (2 Bft)
2021-04-23 07:10 20,2 C 5,9 C 8,5 C 35,3 C 0,0 C 0,0 C 6,3 C 5,6 C 0,0 C 74 % 40 % 33 % 0 % 0 % 0,0 mm 2,9 m/s (2 Bft) W-NW 292 0 min 1,6 C 3,6 C 3,3 m/s (2 Bft)
2021-04-23 07:05 20,2 C 5,8 C 8,5 C 34,5 C 0,0 C 0,0 C 5,9 C 5,9 C 0,0 C 75 % 40 % 32 % 0 % 0 % 0,0 mm 2,5 m/s (2 Bft) NW 315 0 min 1,7 C 3,9 C 2,9 m/s (2 Bft)
2021-04-23 07:00 20,2 C 5,9 C 8,5 C 33,7 C 0,0 C 0,0 C 5,8 C 5,7 C 0,0 C 76 % 40 % 31 % 0 % 0 % 0,0 mm 2,5 m/s (2 Bft) W 270 0 min 2,0 C 3,9 C 2,2 m/s (2 Bft)
2021-04-23 06:55 20,1 C 5,7 C 8,5 C 32,8 C 0,0 C 0,0 C 5,6 C 5,4 C 0,0 C 77 % 40 % 29 % 0 % 0 % 0,0 mm 2,5 m/s (2 Bft) NW 315 0 min 2,0 C 3,7 C 2,7 m/s (2 Bft)
2021-04-23 06:50 20,1 C 5,6 C 8,5 C 32,3 C 0,0 C 0,0 C 5,5 C 5,2 C 0,0 C 78 % 40 % 28 % 0 % 0 % 0,0 mm 2,5 m/s (2 Bft) W 270 0 min 2,1 C 3,6 C 3,8 m/s (3 Bft)
2021-04-23 06:45 20,1 C 5,5 C 8,4 C 31,0 C 0,0 C 0,0 C 5,2 C 4,7 C 0,0 C 78 % 39 % 26 % 0 % 0 % 0,0 mm 2,5 m/s (2 Bft) W-SW 247 0 min 2,0 C 3,5 C 1,9 m/s (2 Bft)
2021-04-23 06:40 20,1 C 5,5 C 8,4 C 28,2 C 0,0 C 0,0 C 5,2 C 4,5 C 0,0 C 79 % 39 % 22 % 0 % 0 % 0,0 mm 2,3 m/s (2 Bft) W 270 0 min 2,2 C 3,7 C 2,5 m/s (2 Bft)
2021-04-23 06:35 20,1 C 5,3 C 8,4 C 25,7 C 0,0 C 0,0 C 4,9 C 4,1 C 0,0 C 79 % 39 % 18 % 0 % 0 % 0,0 mm 2,2 m/s (2 Bft) N-NW 337 0 min 2,0 C 3,5 C 1,9 m/s (2 Bft)
2021-04-23 06:30 20,1 C 5,4 C 8,4 C 24,7 C 0,0 C 0,0 C 4,7 C 3,4 C 0,0 C 80 % 39 % 16 % 0 % 0 % 0,0 mm 2,4 m/s (2 Bft) W-NW 292 0 min 2,2 C 3,4 C 2,4 m/s (2 Bft)
2021-04-23 06:25 20,0 C 5,3 C 8,4 C 23,9 C 0,0 C 0,0 C 4,5 C 2,4 C 0,0 C 80 % 39 % 15 % 0 % 0 % 0,0 mm 2,7 m/s (2 Bft) SW 225 0 min 2,1 C 3,1 C 3,0 m/s (2 Bft)
2021-04-23 06:20 20,0 C 5,2 C 8,4 C 21,3 C 0,0 C 0,0 C 4,2 C 1,7 C 0,0 C 80 % 39 % 10 % 0 % 0 % 0,0 mm 2,6 m/s (2 Bft) W 270 0 min 2,0 C 3,1 C 3,8 m/s (3 Bft)
2021-04-23 06:15 20,0 C 5,1 C 8,4 C 15,4 C 0,0 C 0,0 C 3,9 C 1,4 C 0,0 C 80 % 39 % 1 % 0 % 0 % 0,0 mm 2,3 m/s (2 Bft) W 270 0 min 1,9 C 3,2 C 2,3 m/s (2 Bft)
2021-04-23 06:10 20,0 C 5,1 C 8,4 C 11,9 C 0,0 C 0,0 C 3,8 C 1,3 C 0,0 C 80 % 39 % 0 % 0 % 0 % 0,0 mm 2,2 m/s (2 Bft) W 270 0 min 1,9 C 3,3 C 3,4 m/s (3 Bft)
2021-04-23 06:05 19,9 C 5,1 C 8,5 C 9,5 C 0,0 C 0,0 C 3,9 C 1,5 C 0,0 C 79 % 39 % 0 % 0 % 0 % 0,0 mm 1,9 m/s (2 Bft) W 270 0 min 1,8 C 3,5 C 2,5 m/s (2 Bft)
2021-04-23 06:00 19,9 C 5,1 C 8,5 C 8,1 C 0,0 C 0,0 C 3,9 C 1,6 C 0,0 C 79 % 39 % 0 % 0 % 0 % 0,0 mm 1,8 m/s (2 Bft) W-SW 247 0 min 1,8 C 3,7 C 1,5 m/s (1 Bft)
2021-04-23 05:55 20,0 C 5,2 C 8,5 C 5,1 C 0,0 C 0,0 C 3,9 C 1,4 C 0,0 C 79 % 39 % 0 % 0 % 0 % 0,0 mm 1,9 m/s (2 Bft) S-SW 202 0 min 1,9 C 3,7 C 2,4 m/s (2 Bft)
2021-04-23 05:50 20,0 C 5,2 C 8,5 C 3,4 C 0,0 C 0,0 C 3,9 C 1,2 C 0,0 C 79 % 39 % 0 % 0 % 0 % 0,0 mm 2,2 m/s (2 Bft) SW 225 0 min 1,9 C 3,4 C 2,1 m/s (2 Bft)
2021-04-23 05:45 20,0 C 5,2 C 8,7 C 1,0 C 0,0 C 0,0 C 3,9 C 1,2 C 0,0 C 79 % 38 % 0 % 0 % 0 % 0,0 mm 2,2 m/s (2 Bft) W-SW 247 0 min 1,9 C 3,4 C 2,4 m/s (2 Bft)
2021-04-23 05:40 20,0 C 5,3 C 8,7 C -0,3 C 0,0 C 0,0 C 3,9 C 1,1 C 0,0 C 79 % 38 % 0 % 0 % 0 % 0,0 mm 2,2 m/s (2 Bft) W-SW 247 0 min 2,0 C 3,5 C 2,7 m/s (2 Bft)
2021-04-23 05:35 20,0 C 5,3 C 8,7 C -1,9 C 0,0 C 0,0 C 3,9 C 1,2 C 0,0 C 79 % 38 % 0 % 0 % 0 % 0,0 mm 2,1 m/s (2 Bft) W-SW 247 0 min 2,0 C 3,6 C 1,8 m/s (2 Bft)
2021-04-23 05:30 20,0 C 5,3 C 8,7 C -2,5 C 0,0 C 0,0 C 3,9 C 1,2 C 0,0 C 79 % 38 % 0 % 0 % 0 % 0,0 mm 2,1 m/s (2 Bft) W-SW 247 0 min 2,0 C 3,6 C 3,2 m/s (2 Bft)
2021-04-23 05:25 20,0 C 5,2 C 8,7 C -3,1 C 0,0 C 0,0 C 3,9 C 1,4 C 0,0 C 78 % 38 % 0 % 0 % 0 % 0,0 mm 1,9 m/s (2 Bft) W-SW 247 0 min 1,7 C 3,7 C 1,9 m/s (2 Bft)
2021-04-23 05:20 20,1 C 5,2 C 8,8 C -3,4 C 0,0 C 0,0 C 4,0 C 1,5 C 0,0 C 78 % 38 % 0 % 0 % 0 % 0,0 mm 1,8 m/s (2 Bft) SW 225 0 min 1,7 C 3,8 C 2,7 m/s (2 Bft)
2021-04-23 05:15 20,1 C 5,3 C 8,8 C -3,6 C 0,0 C 0,0 C 4,0 C 1,5 C 0,0 C 78 % 38 % 0 % 0 % 0 % 0,0 mm 1,9 m/s (2 Bft) SW 225 0 min 1,8 C 3,8 C 1,6 m/s (2 Bft)
2021-04-23 05:10 20,1 C 5,3 C 8,9 C -3,6 C 0,0 C 0,0 C 4,1 C 1,8 C 0,0 C 78 % 38 % 0 % 0 % 0 % 0,0 mm 1,8 m/s (2 Bft) W 270 0 min 1,8 C 3,9 C 1,8 m/s (2 Bft)
2021-04-23 05:05 20,2 C 5,3 C 8,8 C -3,6 C 0,0 C 0,0 C 4,2 C 1,9 C 0,0 C 78 % 38 % 0 % 0 % 0 % 0,0 mm 1,7 m/s (2 Bft) W-SW 247 0 min 1,8 C 4,1 C 1,8 m/s (2 Bft)
2021-04-23 05:00 20,2 C 5,4 C 8,8 C -3,6 C 0,0 C 0,0 C 4,2 C 1,8 C 0,0 C 78 % 38 % 0 % 0 % 0 % 0,0 mm 1,9 m/s (2 Bft) SW 225 0 min 1,9 C 3,9 C 2,3 m/s (2 Bft)
2021-04-23 04:55 20,2 C 5,5 C 8,9 C -3,6 C 0,0 C 0,0 C 4,3 C 2,0 C 0,0 C 78 % 38 % 0 % 0 % 0 % 0,0 mm 1,7 m/s (2 Bft) SW 225 0 min 2,0 C 4,2 C 1,8 m/s (2 Bft)
2021-04-23 04:50 20,2 C 5,5 C 8,9 C -3,6 C 0,0 C 0,0 C 4,4 C 2,3 C 0,0 C 78 % 37 % 0 % 0 % 0 % 0,0 mm 1,5 m/s (1 Bft) W-SW 247 0 min 2,0 C 4,5 C 2,9 m/s (2 Bft)
2021-04-23 04:45 20,2 C 5,5 C 8,9 C -3,6 C 0,0 C 0,0 C 4,4 C 2,1 C 0,0 C 78 % 37 % 0 % 0 % 0 % 0,0 mm 1,7 m/s (2 Bft) W 270 0 min 2,0 C 4,3 C 1,5 m/s (1 Bft)
2021-04-23 04:40 20,2 C 5,5 C 8,9 C -3,6 C 0,0 C 0,0 C 4,4 C 2,2 C 0,0 C 78 % 37 % 0 % 0 % 0 % 0,0 mm 1,8 m/s (2 Bft) S 180 0 min 2,0 C 4,1 C 1,1 m/s (1 Bft)
2021-04-23 04:35 20,2 C 5,6 C 9,0 C -3,6 C 0,0 C 0,0 C 4,5 C 2,4 C 0,0 C 78 % 37 % 0 % 0 % 0 % 0,0 mm 1,8 m/s (2 Bft) SW 225 0 min 2,1 C 4,2 C 1,6 m/s (2 Bft)
2021-04-23 04:30 20,2 C 5,6 C 9,1 C -3,6 C 0,0 C 0,0 C 4,5 C 2,3 C 0,0 C 78 % 37 % 0 % 0 % 0 % 0,0 mm 1,9 m/s (2 Bft) S-SW 202 0 min 2,1 C 4,1 C 1,2 m/s (1 Bft)
2021-04-23 04:25 20,2 C 5,6 C 9,1 C -3,6 C 0,0 C 0,0 C 4,5 C 2,4 C 0,0 C 77 % 37 % 0 % 0 % 0 % 0,0 mm 2,0 m/s (2 Bft) W-SW 247 0 min 1,9 C 4,0 C 1,5 m/s (1 Bft)
2021-04-23 04:20 20,2 C 5,7 C 9,0 C -3,6 C 0,0 C 0,0 C 4,6 C 2,3 C 0,0 C 77 % 37 % 0 % 0 % 0 % 0,0 mm 2,1 m/s (2 Bft) W-SW 247 0 min 2,0 C 4,0 C 2,1 m/s (2 Bft)
2021-04-23 04:15 20,2 C 5,7 C 9,1 C -3,6 C 0,0 C 0,0 C 4,7 C 2,6 C 0,0 C 77 % 37 % 0 % 0 % 0 % 0,0 mm 2,0 m/s (2 Bft) S-SW 202 0 min 2,0 C 4,2 C 1,6 m/s (2 Bft)
2021-04-23 04:10 20,2 C 5,7 C 9,1 C -3,6 C 0,0 C 0,0 C 4,7 C 2,6 C 0,0 C 77 % 36 % 0 % 0 % 0 % 0,0 mm 2,0 m/s (2 Bft) W-SW 247 0 min 2,0 C 4,2 C 2,4 m/s (2 Bft)
2021-04-23 04:05 20,1 C 5,7 C 9,1 C -3,6 C 0,0 C 0,0 C 4,6 C 2,4 C 0,0 C 76 % 36 % 0 % 0 % 0 % 0,0 mm 2,1 m/s (2 Bft) SW 225 0 min 1,8 C 4,0 C 1,8 m/s (2 Bft)
2021-04-23 04:00 20,1 C 5,6 C 9,1 C -3,6 C 0,0 C 0,0 C 4,5 C 2,2 C 0,0 C 76 % 36 % 0 % 0 % 0 % 0,0 mm 2,2 m/s (2 Bft) W-SW 247 0 min 1,7 C 3,9 C 2,6 m/s (2 Bft)
2021-04-23 03:55 20,1 C 5,6 C 9,1 C -3,6 C 0,0 C 0,0 C 4,5 C 2,2 C 0,0 C 76 % 36 % 0 % 0 % 0 % 0,0 mm 2,0 m/s (2 Bft) S-SW 202 0 min 1,7 C 4,0 C 1,4 m/s (1 Bft)
2021-04-23 03:50 20,0 C 5,6 C 9,2 C -3,6 C 0,0 C 0,0 C 4,4 C 2,0 C 0,0 C 76 % 36 % 0 % 0 % 0 % 0,0 mm 2,2 m/s (2 Bft) W-SW 247 0 min 1,7 C 3,9 C 1,9 m/s (2 Bft)
2021-04-23 03:45 20,0 C 5,6 C 9,2 C -3,6 C 0,0 C 0,0 C 4,3 C 1,8 C 0,0 C 76 % 36 % 0 % 0 % 0 % 0,0 mm 2,5 m/s (2 Bft) W-SW 247 0 min 1,7 C 3,6 C 2,2 m/s (2 Bft)
2021-04-23 03:40 20,0 C 5,7 C 9,2 C -3,6 C 0,0 C 0,0 C 4,4 C 1,7 C 0,0 C 75 % 36 % 0 % 0 % 0 % 0,0 mm 2,5 m/s (2 Bft) W-SW 247 0 min 1,6 C 3,7 C 1,8 m/s (2 Bft)
2021-04-23 03:35 19,9 C 5,6 C 9,3 C -3,6 C 0,0 C 0,0 C 4,3 C 1,6 C 0,0 C 75 % 36 % 0 % 0 % 0 % 0,0 mm 2,3 m/s (2 Bft) W-SW 247 0 min 1,5 C 3,8 C 2,2 m/s (2 Bft)
2021-04-23 03:30 20,0 C 5,7 C 9,3 C -3,6 C 0,0 C 0,0 C 4,3 C 1,4 C 0,0 C 75 % 36 % 0 % 0 % 0 % 0,0 mm 2,3 m/s (2 Bft) W-SW 247 0 min 1,6 C 3,9 C 1,7 m/s (2 Bft)
2021-04-23 03:25 20,0 C 5,6 C 9,4 C -3,6 C 0,0 C 0,0 C 4,2 C 1,5 C 0,0 C 75 % 35 % 0 % 0 % 0 % 0,0 mm 2,2 m/s (2 Bft) SW 225 0 min 1,5 C 3,9 C 3,3 m/s (2 Bft)
2021-04-23 03:20 20,0 C 5,6 C 9,5 C -3,6 C 0,0 C 0,0 C 4,3 C 1,6 C 0,0 C 74 % 35 % 0 % 0 % 0 % 0,0 mm 2,1 m/s (2 Bft) SW 225 0 min 1,3 C 4,0 C 2,2 m/s (2 Bft)
2021-04-23 03:15 20,0 C 5,7 C 9,5 C -3,6 C 0,0 C 0,0 C 4,3 C 1,6 C 0,0 C 74 % 35 % 0 % 0 % 0 % 0,0 mm 2,3 m/s (2 Bft) N 360 0 min 1,4 C 3,9 C 1,6 m/s (2 Bft)
2021-04-23 03:10 20,0 C 5,7 C 9,4 C -3,6 C 0,0 C 0,0 C 4,4 C 1,7 C 0,0 C 74 % 35 % 0 % 0 % 0 % 0,0 mm 2,3 m/s (2 Bft) S 180 0 min 1,4 C 3,9 C 3,0 m/s (2 Bft)
2021-04-23 03:05 20,1 C 5,8 C 9,5 C -3,6 C 0,0 C 0,0 C 4,5 C 1,8 C 0,0 C 74 % 35 % 0 % 0 % 0 % 0,0 mm 2,2 m/s (2 Bft) W-SW 247 0 min 1,5 C 4,1 C 3,5 m/s (3 Bft)
2021-04-23 03:00 20,1 C 5,9 C 9,5 C -3,6 C 0,0 C 0,0 C 4,5 C 1,7 C 0,0 C 74 % 35 % 0 % 0 % 0 % 0,0 mm 2,3 m/s (2 Bft) SW 225 0 min 1,6 C 4,2 C 1,7 m/s (2 Bft)
2021-04-23 02:55 20,1 C 5,8 C 9,6 C -3,6 C 0,0 C 0,0 C 4,5 C 2,0 C 0,0 C 73 % 35 % 0 % 0 % 0 % 0,0 mm 2,1 m/s (2 Bft) W-SW 247 0 min 1,3 C 4,2 C 1,8 m/s (2 Bft)
2021-04-23 02:50 20,2 C 5,9 C 9,6 C -3,6 C 0,0 C 0,0 C 4,7 C 2,2 C 0,0 C 73 % 35 % 0 % 0 % 0 % 0,0 mm 2,1 m/s (2 Bft) SW 225 0 min 1,4 C 4,3 C 2,6 m/s (2 Bft)
2021-04-23 02:45 20,2 C 6,0 C 9,7 C -3,6 C 0,0 C 0,0 C 4,6 C 1,9 C 0,0 C 72 % 34 % 0 % 0 % 0 % 0,0 mm 2,4 m/s (2 Bft) W-SW 247 0 min 1,3 C 4,2 C 4,1 m/s (3 Bft)
2021-04-23 02:40 20,2 C 6,0 C 9,6 C -3,6 C 0,0 C 0,0 C 4,6 C 1,9 C 0,0 C 72 % 34 % 0 % 0 % 0 % 0,0 mm 2,5 m/s (2 Bft) W 270 0 min 1,3 C 4,0 C 4,0 m/s (3 Bft)
2021-04-23 02:35 20,2 C 6,1 C 9,6 C -3,6 C 0,0 C 0,0 C 5,0 C 1,9 C 0,0 C 72 % 34 % 0 % 0 % 0 % 0,0 mm 2,7 m/s (2 Bft) S-SW 202 0 min 1,4 C 4,0 C 1,8 m/s (2 Bft)
2021-04-23 02:30 20,2 C 6,0 C 9,7 C -3,6 C 0,0 C 0,0 C 5,0 C 2,1 C 0,0 C 72 % 34 % 0 % 0 % 0 % 0,0 mm 2,6 m/s (2 Bft) W-SW 247 0 min 1,3 C 4,0 C 1,7 m/s (2 Bft)
2021-04-23 02:25 20,3 C 6,1 C 9,7 C -3,6 C 0,0 C 0,0 C 4,9 C 2,4 C 0,0 C 71 % 34 % 0 % 0 % 0 % 0,0 mm 2,4 m/s (2 Bft) W-SW 247 0 min 1,2 C 4,3 C 2,3 m/s (2 Bft)
2021-04-23 02:20 20,3 C 6,1 C 9,7 C -3,6 C 0,0 C 0,0 C 4,8 C 2,3 C 0,0 C 71 % 34 % 0 % 0 % 0 % 0,0 mm 2,6 m/s (2 Bft) SW 225 0 min 1,2 C 4,1 C 2,0 m/s (2 Bft)
2021-04-23 02:15 20,3 C 6,3 C 9,9 C -3,6 C 0,0 C 0,0 C 5,2 C 2,3 C 0,0 C 70 % 34 % 0 % 0 % 0 % 0,0 mm 2,7 m/s (2 Bft) W-SW 247 0 min 1,2 C 4,3 C 2,5 m/s (2 Bft)
2021-04-23 02:10 20,3 C 6,3 C 9,9 C -3,6 C 0,0 C 0,0 C 5,3 C 2,6 C 0,0 C 70 % 33 % 0 % 0 % 0 % 0,0 mm 2,6 m/s (2 Bft) W-NW 292 0 min 1,2 C 4,3 C 2,0 m/s (2 Bft)
2021-04-23 02:05 20,3 C 6,2 C 9,9 C -3,6 C 0,0 C 0,0 C 5,0 C 2,7 C 0,0 C 70 % 33 % 0 % 0 % 0 % 0,0 mm 2,6 m/s (2 Bft) W-SW 247 0 min 1,1 C 4,2 C 2,6 m/s (2 Bft)
2021-04-23 02:00 20,3 C 6,3 C 9,9 C -3,6 C 0,0 C 0,0 C 5,3 C 2,7 C 0,0 C 70 % 33 % 0 % 0 % 0 % 0,0 mm 2,8 m/s (2 Bft) SW 225 0 min 1,2 C 4,2 C 4,9 m/s (3 Bft)
2021-04-23 01:55 20,3 C 6,3 C 9,9 C -3,6 C 0,0 C 0,0 C 5,3 C 2,6 C 0,0 C 69 % 33 % 0 % 0 % 0 % 0,0 mm 2,9 m/s (2 Bft) W-SW 247 0 min 1,0 C 4,1 C 4,4 m/s (3 Bft)
2021-04-23 01:50 20,2 C 6,3 C 9,8 C -3,6 C 0,0 C 0,0 C 5,3 C 2,8 C 0,0 C 68 % 33 % 0 % 0 % 0 % 0,0 mm 2,7 m/s (2 Bft) W-SW 247 0 min 0,8 C 4,3 C 2,2 m/s (2 Bft)
2021-04-23 01:45 20,2 C 6,3 C 9,9 C -3,6 C 0,0 C 0,0 C 5,1 C 2,6 C 0,0 C 68 % 33 % 0 % 0 % 0 % 0,0 mm 2,7 m/s (2 Bft) W-SW 247 0 min 0,8 C 4,3 C 3,9 m/s (3 Bft)
2021-04-23 01:40 20,3 C 6,3 C 9,9 C -3,6 C 0,0 C 0,0 C 5,3 C 2,6 C 0,0 C 67 % 33 % 0 % 0 % 0 % 0,0 mm 2,6 m/s (2 Bft) W-SW 247 0 min 0,6 C 4,3 C 4,4 m/s (3 Bft)
2021-04-23 01:35 20,3 C 6,2 C 10,0 C -3,6 C 0,0 C 0,0 C 5,0 C 2,5 C 0,0 C 67 % 33 % 0 % 0 % 0 % 0,0 mm 2,5 m/s (2 Bft) SW 225 0 min 0,5 C 4,3 C 2,8 m/s (2 Bft)
2021-04-23 01:30 20,3 C 6,2 C 10,1 C -3,6 C 0,0 C 0,0 C 4,9 C 2,3 C 0,0 C 66 % 32 % 0 % 0 % 0 % 0,0 mm 2,7 m/s (2 Bft) W 270 0 min 0,3 C 4,1 C 4,4 m/s (3 Bft)
2021-04-23 01:25 20,3 C 6,2 C 10,0 C -3,6 C 0,0 C 0,0 C 5,1 C 2,3 C 0,0 C 65 % 32 % 0 % 0 % 0 % 0,0 mm 2,7 m/s (2 Bft) S 180 0 min 0,1 C 4,1 C 3,1 m/s (2 Bft)
2021-04-23 01:20 20,2 C 6,3 C 10,1 C -3,6 C 0,0 C 0,0 C 5,0 C 2,5 C 0,0 C 64 % 32 % 0 % 0 % 0 % 0,0 mm 2,5 m/s (2 Bft) SW 225 0 min 0,0 C 4,4 C 2,7 m/s (2 Bft)
2021-04-23 01:15 20,2 C 6,2 C 10,1 C -3,6 C 0,0 C 0,0 C 5,0 C 2,6 C 0,0 C 63 % 32 % 0 % 0 % 0 % 0,0 mm 2,3 m/s (2 Bft) W-SW 247 0 min -0,3 C 4,5 C 3,4 m/s (2 Bft)
2021-04-23 01:10 20,2 C 6,2 C 10,2 C -3,6 C 0,0 C 0,0 C 5,0 C 2,7 C 0,0 C 63 % 32 % 0 % 0 % 0 % 0,0 mm 2,3 m/s (2 Bft) SW 225 0 min -0,3 C 4,5 C 2,9 m/s (2 Bft)
2021-04-23 01:05 20,1 C 6,2 C 10,3 C -3,6 C 0,0 C 0,0 C 5,0 C 2,6 C 0,0 C 63 % 32 % 0 % 0 % 0 % 0,0 mm 2,3 m/s (2 Bft) W-SW 247 0 min -0,3 C 4,5 C 1,5 m/s (1 Bft)
2021-04-23 01:00 20,1 C 6,1 C 10,3 C -3,6 C 0,0 C 0,0 C 4,9 C 2,6 C 0,0 C 63 % 32 % 0 % 0 % 0 % 0,0 mm 2,3 m/s (2 Bft) SW 225 0 min -0,4 C 4,4 C 2,3 m/s (2 Bft)
2021-04-23 00:55 20,0 C 6,1 C 10,3 C -3,6 C 0,0 C 0,0 C 5,0 C 2,7 C 0,0 C 62 % 32 % 0 % 0 % 0 % 0,0 mm 2,1 m/s (2 Bft) SW 225 0 min -0,6 C 4,6 C 1,8 m/s (2 Bft)
2021-04-23 00:50 20,0 C 6,1 C 10,3 C -3,6 C 0,0 C 0,0 C 5,0 C 2,7 C 0,0 C 62 % 32 % 0 % 0 % 0 % 0,0 mm 2,1 m/s (2 Bft) S-SW 202 0 min -0,6 C 4,5 C 2,6 m/s (2 Bft)
2021-04-23 00:45 20,0 C 6,2 C 10,4 C -3,6 C 0,0 C 0,0 C 5,0 C 2,6 C 0,0 C 61 % 32 % 0 % 0 % 0 % 0,0 mm 2,2 m/s (2 Bft) S 180 0 min -0,7 C 4,6 C 2,4 m/s (2 Bft)
2021-04-23 00:40 20,1 C 6,3 C 10,5 C -3,6 C 0,0 C 0,0 C 5,1 C 2,6 C 0,0 C 61 % 32 % 0 % 0 % 0 % 0,0 mm 2,3 m/s (2 Bft) SW 225 0 min -0,7 C 4,6 C 2,6 m/s (2 Bft)
2021-04-23 00:35 20,1 C 6,3 C 10,5 C -3,6 C 0,0 C 0,0 C 5,0 C 2,4 C 0,0 C 61 % 31 % 0 % 0 % 0 % 0,0 mm 2,4 m/s (2 Bft) S 180 0 min -0,7 C 4,5 C 1,3 m/s (1 Bft)
2021-04-23 00:30 20,1 C 6,2 C 10,5 C -3,6 C 0,0 C 0,0 C 4,9 C 2,4 C 0,0 C 61 % 31 % 0 % 0 % 0 % 0,0 mm 2,5 m/s (2 Bft) SW 225 0 min -0,7 C 4,3 C 2,6 m/s (2 Bft)
2021-04-23 00:25 20,2 C 6,3 C 10,7 C -3,6 C 0,0 C 0,0 C 5,0 C 2,4 C 0,0 C 61 % 31 % 0 % 0 % 0 % 0,0 mm 2,4 m/s (2 Bft) W-SW 247 0 min -0,7 C 4,5 C 2,5 m/s (2 Bft)
2021-04-23 00:20 20,2 C 6,3 C 10,7 C -3,5 C 0,0 C 0,0 C 5,0 C 2,4 C 0,0 C 60 % 31 % 0 % 0 % 0 % 0,0 mm 2,1 m/s (2 Bft) W-SW 247 0 min -0,9 C 4,7 C 4,2 m/s (3 Bft)
2021-04-23 00:15 20,2 C 6,3 C 10,7 C -3,5 C 0,0 C 0,0 C 5,1 C 2,6 C 0,0 C 59 % 31 % 0 % 0 % 0 % 0,0 mm 1,9 m/s (2 Bft) S 180 0 min -1,1 C 5,0 C 1,6 m/s (2 Bft)
2021-04-23 00:10 20,2 C 6,3 C 10,7 C -3,5 C 0,0 C 0,0 C 5,0 C 2,4 C 0,0 C 59 % 31 % 0 % 0 % 0 % 0,0 mm 1,9 m/s (2 Bft) SW 225 0 min -1,1 C 4,9 C 2,3 m/s (2 Bft)
2021-04-23 00:05 20,2 C 6,3 C 10,9 C -3,6 C 0,0 C 0,0 C 5,0 C 2,3 C 0,0 C 59 % 31 % 0 % 0 % 0 % 0,0 mm 2,0 m/s (2 Bft) SW 225 0 min -1,1 C 4,9 C 2,1 m/s (2 Bft)
2021-04-23 00:00 20,3 C 6,2 C 10,8 C -3,5 C 0,0 C 0,0 C 4,9 C 2,4 C 0,0 C 58 % 31 % 0 % 0 % 0 % 0,0 mm 1,9 m/s (2 Bft) SW 225 0 min -1,4 C 4,9 C 1,8 m/s (2 Bft)
2021-04-22 23:55 20,2 C 6,3 C 10,9 C -3,5 C 0,0 C 0,0 C 5,1 C 2,6 C 0,0 C 57 % 31 % 0 % 0 % 0 % 0,0 mm 1,7 m/s (2 Bft) S 180 0 min -1,6 C 5,2 C 2,1 m/s (2 Bft)
2021-04-22 23:50 20,2 C 6,4 C 11,1 C -3,5 C 0,0 C 0,0 C 5,1 C 2,6 C 0,0 C 57 % 31 % 0 % 0 % 0 % 0,0 mm 1,7 m/s (2 Bft) SW 225 0 min -1,5 C 5,3 C 1,0 m/s (1 Bft)
2021-04-22 23:45 20,4 C 6,4 C 11,1 C -3,5 C 0,0 C 0,0 C 5,1 C 2,6 C 0,0 C 56 % 31 % 0 % 0 % 0 % 0,0 mm 1,8 m/s (2 Bft) S-SW 202 0 min -1,7 C 5,2 C 1,9 m/s (2 Bft)
2021-04-22 23:40 20,4 C 6,5 C 11,1 C -3,5 C 0,0 C 0,0 C 5,3 C 2,8 C 0,0 C 55 % 31 % 0 % 0 % 0 % 0,0 mm 1,7 m/s (2 Bft) W-SW 247 0 min -1,9 C 5,4 C 1,9 m/s (2 Bft)
2021-04-22 23:35 20,4 C 6,5 C 11,2 C -3,5 C 0,0 C 0,0 C 5,3 C 2,8 C 0,0 C 55 % 30 % 0 % 0 % 0 % 0,0 mm 1,9 m/s (2 Bft) SW 225 0 min -1,9 C 5,2 C 1,8 m/s (2 Bft)
2021-04-22 23:30 20,4 C 6,7 C 11,3 C -3,5 C 0,0 C 0,0 C 5,4 C 2,8 C 0,0 C 55 % 30 % 0 % 0 % 0 % 0,0 mm 2,0 m/s (2 Bft) W-SW 247 0 min -1,7 C 5,4 C 1,2 m/s (1 Bft)
2021-04-22 23:25 20,4 C 6,7 C 11,3 C -3,5 C 0,0 C 0,0 C 5,5 C 3,0 C 0,0 C 54 % 30 % 0 % 0 % 0 % 0,0 mm 1,8 m/s (2 Bft) S-SW 202 0 min -1,9 C 5,5 C 2,5 m/s (2 Bft)
2021-04-22 23:20 20,4 C 6,8 C 11,3 C -3,5 C 0,0 C 0,0 C 5,5 C 2,9 C 0,0 C 54 % 30 % 0 % 0 % 0 % 0,0 mm 2,0 m/s (2 Bft) SW 225 0 min -1,8 C 5,4 C 1,3 m/s (1 Bft)
2021-04-22 23:15 20,4 C 6,8 C 11,5 C -3,5 C 0,0 C 0,0 C 5,5 C 2,9 C 0,0 C 54 % 30 % 0 % 0 % 0 % 0,0 mm 2,3 m/s (2 Bft) W-SW 247 0 min -1,8 C 5,2 C 3,4 m/s (3 Bft)
2021-04-22 23:10 20,5 C 6,8 C 11,5 C -3,5 C 0,0 C 0,0 C 5,5 C 2,9 C 0,0 C 54 % 30 % 0 % 0 % 0 % 0,0 mm 2,3 m/s (2 Bft) SW 225 0 min -1,8 C 5,2 C 1,8 m/s (2 Bft)
2021-04-22 23:05 20,5 C 6,8 C 11,6 C -3,5 C 0,0 C 0,0 C 5,5 C 2,9 C 0,0 C 54 % 30 % 0 % 0 % 0 % 0,0 mm 2,3 m/s (2 Bft) S 180 0 min -1,8 C 5,2 C 1,8 m/s (2 Bft)
2021-04-22 23:00 20,5 C 6,8 C 11,6 C -3,5 C 0,0 C 0,0 C 5,5 C 2,9 C 0,0 C 54 % 30 % 0 % 0 % 0 % 0,0 mm 2,1 m/s (2 Bft) W 270 0 min -1,8 C 5,4 C 1,8 m/s (2 Bft)
2021-04-22 22:55 20,5 C 6,8 C 11,7 C -3,5 C 0,0 C 0,0 C 5,4 C 2,7 C 0,0 C 54 % 30 % 0 % 0 % 0 % 0,0 mm 2,3 m/s (2 Bft) W-SW 247 0 min -1,8 C 5,2 C 1,6 m/s (2 Bft)
2021-04-22 22:50 20,5 C 6,9 C 11,9 C -3,5 C 0,0 C 0,0 C 5,5 C 2,7 C 0,0 C 54 % 30 % 0 % 0 % 0 % 0,0 mm 2,2 m/s (2 Bft) W-SW 247 0 min -1,8 C 5,4 C 1,5 m/s (1 Bft)
2021-04-22 22:45 20,5 C 6,9 C 11,9 C -3,5 C 0,0 C 0,0 C 5,6 C 2,9 C 0,0 C 55 % 30 % 0 % 0 % 0 % 0,0 mm 1,9 m/s (2 Bft) S-SW 202 0 min -1,5 C 5,7 C 2,3 m/s (2 Bft)
2021-04-22 22:40 20,5 C 7,1 C 12,0 C -3,5 C 0,0 C 0,0 C 5,7 C 2,9 C 0,0 C 55 % 30 % 0 % 0 % 0 % 0,0 mm 1,9 m/s (2 Bft) SW 225 0 min -1,3 C 5,9 C 1,4 m/s (1 Bft)
2021-04-22 22:35 20,5 C 7,1 C 12,1 C -3,5 C 0,0 C 0,0 C 5,8 C 3,1 C 0,0 C 54 % 29 % 0 % 0 % 0 % 0,0 mm 1,8 m/s (2 Bft) W 270 0 min -1,6 C 6,0 C 1,3 m/s (1 Bft)
2021-04-22 22:30 20,5 C 7,1 C 12,2 C -3,5 C 0,0 C 0,0 C 5,7 C 2,9 C 0,0 C 54 % 29 % 0 % 0 % 0 % 0,0 mm 2,0 m/s (2 Bft) W-SW 247 0 min -1,6 C 5,8 C 1,3 m/s (1 Bft)
2021-04-22 22:25 20,5 C 7,2 C 12,3 C -3,5 C 0,0 C 0,0 C 5,7 C 2,7 C 0,0 C 54 % 29 % 0 % 0 % 0 % 0,0 mm 2,2 m/s (2 Bft) S-SW 202 0 min -1,5 C 5,7 C 2,4 m/s (2 Bft)
2021-04-22 22:20 20,5 C 7,3 C 12,3 C -3,5 C 0,0 C 0,0 C 5,9 C 3,0 C 0,0 C 54 % 29 % 0 % 0 % 0 % 0,0 mm 2,0 m/s (2 Bft) S-SW 202 0 min -1,4 C 6,1 C 1,1 m/s (1 Bft)
2021-04-22 22:15 20,5 C 7,3 C 12,4 C -3,5 C 0,0 C 0,0 C 5,9 C 3,2 C 0,0 C 53 % 29 % 0 % 0 % 0 % 0,0 mm 1,8 m/s (2 Bft) S 180 0 min -1,6 C 6,2 C 1,6 m/s (1 Bft)
2021-04-22 22:10 20,5 C 7,3 C 12,5 C -3,5 C 0,0 C 0,0 C 5,9 C 3,0 C 0,0 C 53 % 29 % 0 % 0 % 0 % 0,0 mm 2,0 m/s (2 Bft) SW 225 0 min -1,6 C 6,1 C 1,3 m/s (1 Bft)
2021-04-22 22:05 20,5 C 7,5 C 12,7 C -3,5 C 0,0 C 0,0 C 5,9 C 2,8 C 0,0 C 53 % 29 % 0 % 0 % 0 % 0,0 mm 2,3 m/s (2 Bft) W-SW 247 0 min -1,4 C 6,0 C 1,5 m/s (1 Bft)
2021-04-22 22:00 20,4 C 7,5 C 12,8 C -3,5 C 0,0 C 0,0 C 6,0 C 2,9 C 0,0 C 54 % 29 % 0 % 0 % 0 % 0,0 mm 2,2 m/s (2 Bft) SW 225 0 min -1,2 C 6,1 C 3,0 m/s (2 Bft)
2021-04-22 21:55 20,4 C 7,5 C 12,9 C -3,5 C 0,0 C 0,0 C 6,0 C 2,9 C 0,0 C 53 % 29 % 0 % 0 % 0 % 0,0 mm 2,0 m/s (2 Bft) W-SW 247 0 min -1,4 C 6,2 C 2,7 m/s (2 Bft)
2021-04-22 21:50 20,4 C 7,5 C 13,1 C -3,5 C 0,0 C 0,0 C 6,0 C 2,9 C 0,0 C 53 % 29 % 0 % 0 % 0 % 0,0 mm 2,1 m/s (2 Bft) S-SW 202 0 min -1,4 C 6,2 C 2,1 m/s (2 Bft)
2021-04-22 21:45 20,4 C 7,6 C 13,1 C -3,4 C 0,0 C 0,0 C 6,1 C 3,1 C 0,0 C 53 % 29 % 0 % 0 % 0 % 0,0 mm 2,1 m/s (2 Bft) W-SW 247 0 min -1,4 C 6,3 C 3,5 m/s (3 Bft)
2021-04-22 21:40 20,2 C 7,6 C 13,2 C -3,4 C 0,0 C 0,0 C 6,1 C 3,1 C 0,0 C 52 % 28 % 0 % 0 % 0 % 0,0 mm 2,0 m/s (2 Bft) SW 225 0 min -1,6 C 6,4 C 3,2 m/s (2 Bft)
2021-04-22 21:35 20,3 C 7,9 C 13,5 C -3,4 C 0,0 C 0,0 C 6,3 C 3,1 C 0,0 C 52 % 28 % 0 % 0 % 0 % 0,0 mm 2,3 m/s (2 Bft) SW 225 0 min -1,3 C 6,5 C 1,8 m/s (2 Bft)
2021-04-22 21:30 20,2 C 7,9 C 13,5 C -3,4 C 0,0 C 0,0 C 6,4 C 2,9 C 0,0 C 51 % 28 % 0 % 0 % 0 % 0,0 mm 2,6 m/s (2 Bft) SW 225 0 min -1,6 C 6,2 C 1,7 m/s (2 Bft)
2021-04-22 21:25 20,2 C 8,0 C 13,6 C -3,4 C 0,0 C 0,0 C 6,5 C 2,8 C 0,0 C 50 % 28 % 0 % 0 % 0 % 0,0 mm 2,7 m/s (2 Bft) W 270 0 min -1,8 C 6,3 C 1,9 m/s (2 Bft)
2021-04-22 21:20 20,2 C 8,0 C 13,7 C -3,4 C 0,0 C 0,0 C 6,4 C 3,1 C 0,0 C 50 % 28 % 0 % 0 % 0 % 0,0 mm 2,7 m/s (2 Bft) W-NW 292 0 min -1,8 C 6,3 C 3,1 m/s (2 Bft)
2021-04-22 21:15 20,2 C 8,1 C 13,9 C -3,2 C 0,0 C 0,0 C 6,7 C 3,1 C 0,0 C 49 % 28 % 0 % 0 % 0 % 0,0 mm 2,6 m/s (2 Bft) W-SW 247 0 min -2,0 C 6,5 C 3,2 m/s (2 Bft)
2021-04-22 21:10 20,2 C 8,3 C 14,1 C -3,2 C 0,0 C 0,0 C 6,6 C 3,3 C 0,0 C 49 % 28 % 0 % 0 % 0 % 0,0 mm 2,4 m/s (2 Bft) W-SW 247 0 min -1,8 C 6,9 C 2,3 m/s (2 Bft)
2021-04-22 21:05 20,2 C 8,3 C 14,3 C -2,9 C 0,0 C 0,0 C 6,7 C 3,6 C 0,0 C 47 % 28 % 0 % 0 % 0 % 0,0 mm 2,1 m/s (2 Bft) W-SW 247 0 min -2,3 C 7,1 C 1,7 m/s (2 Bft)
2021-04-22 21:00 20,2 C 8,4 C 14,3 C -2,8 C 0,0 C 0,0 C 6,8 C 3,7 C 0,0 C 47 % 27 % 0 % 0 % 0 % 0,0 mm 2,0 m/s (2 Bft) W-SW 247 0 min -2,2 C 7,3 C 1,2 m/s (1 Bft)
2021-04-22 20:55 20,2 C 8,6 C 14,5 C -2,1 C 0,0 C 0,0 C 6,9 C 3,6 C 0,0 C 45 % 27 % 0 % 0 % 0 % 0,0 mm 2,3 m/s (2 Bft) SW 225 0 min -2,6 C 7,3 C 2,9 m/s (2 Bft)
2021-04-22 20:50 20,3 C 8,7 C 14,6 C -1,3 C 0,0 C 0,0 C 7,0 C 3,7 C 0,0 C 45 % 27 % 0 % 0 % 0 % 0,0 mm 2,3 m/s (2 Bft) SW 225 0 min -2,6 C 7,5 C 2,6 m/s (2 Bft)
2021-04-22 20:45 20,3 C 8,9 C 14,8 C 0,3 C 0,0 C 0,0 C 7,2 C 3,9 C 0,0 C 44 % 27 % 0 % 0 % 0 % 0,0 mm 2,1 m/s (2 Bft) W-SW 247 0 min -2,7 C 7,8 C 3,8 m/s (3 Bft)
2021-04-22 20:40 20,2 C 8,9 C 15,0 C 1,8 C 0,0 C 0,0 C 7,4 C 4,3 C 0,0 C 43 % 27 % 0 % 0 % 0 % 0,0 mm 1,9 m/s (2 Bft) W 270 0 min -3,0 C 8,0 C 2,4 m/s (2 Bft)
2021-04-22 20:35 20,2 C 9,1 C 15,3 C 4,7 C 0,0 C 0,0 C 7,5 C 4,4 C 0,0 C 43 % 27 % 0 % 0 % 0 % 0,0 mm 2,1 m/s (2 Bft) W-SW 247 0 min -2,8 C 8,0 C 1,4 m/s (1 Bft)
2021-04-22 20:30 20,2 C 9,1 C 15,3 C 6,8 C 0,0 C 0,0 C 7,7 C 4,8 C 0,0 C 43 % 27 % 0 % 0 % 0 % 0,0 mm 2,3 m/s (2 Bft) W-SW 247 0 min -2,8 C 7,9 C 1,2 m/s (1 Bft)
2021-04-22 20:25 20,4 C 9,2 C 15,5 C 10,1 C 0,0 C 0,0 C 7,9 C 5,3 C 0,0 C 42 % 27 % 0 % 0 % 0 % 0,0 mm 2,3 m/s (2 Bft) SW 225 0 min -3,0 C 8,0 C 2,8 m/s (2 Bft)
2021-04-22 20:20 20,4 C 9,5 C 15,7 C 12,6 C 0,0 C 0,0 C 8,2 C 5,6 C 0,0 C 42 % 27 % 0 % 0 % 0 % 0,0 mm 2,3 m/s (2 Bft) S 180 0 min -2,8 C 8,4 C 2,1 m/s (2 Bft)
2021-04-22 20:15 20,4 C 9,5 C 15,8 C 15,5 C 0,0 C 0,0 C 8,3 C 6,0 C 0,0 C 40 % 26 % 1 % 0 % 0 % 0,0 mm 2,4 m/s (2 Bft) W-SW 247 0 min -3,4 C 8,3 C 2,6 m/s (2 Bft)
2021-04-22 20:10 20,4 C 9,6 C 16,0 C 18,2 C 0,0 C 0,0 C 8,6 C 6,1 C 0,0 C 39 % 27 % 5 % 0 % 0 % 0,0 mm 2,6 m/s (2 Bft) W 270 0 min -3,7 C 8,3 C 3,6 m/s (3 Bft)
2021-04-22 20:05 20,4 C 9,7 C 16,2 C 21,2 C 0,0 C 0,0 C 8,6 C 6,0 C 0,0 C 39 % 27 % 10 % 0 % 0 % 0,0 mm 3,2 m/s (2 Bft) NW 315 0 min -3,6 C 8,0 C 2,8 m/s (2 Bft)
2021-04-22 20:00 20,4 C 9,9 C 16,4 C 22,7 C 0,0 C 0,0 C 8,8 C 5,9 C 0,0 C 38 % 27 % 13 % 0 % 0 % 0,0 mm 3,6 m/s (3 Bft) W-SW 247 0 min -3,7 C 8,1 C 3,2 m/s (2 Bft)
2021-04-22 19:55 20,4 C 9,9 C 16,5 C 25,1 C 0,0 C 0,0 C 8,8 C 6,0 C 0,0 C 38 % 26 % 17 % 0 % 0 % 0,0 mm 3,8 m/s (3 Bft) NW 315 0 min -3,7 C 8,0 C 2,8 m/s (2 Bft)
2021-04-22 19:50 20,4 C 10,1 C 16,7 C 26,5 C 0,0 C 0,0 C 9,0 C 5,9 C 0,0 C 37 % 26 % 19 % 0 % 0 % 0,0 mm 4,6 m/s (3 Bft) W-SW 247 0 min -3,9 C 10,1 C 5,3 m/s (3 Bft)
2021-04-22 19:45 20,4 C 10,3 C 16,9 C 28,5 C 0,0 C 0,0 C 9,2 C 6,2 C 0,0 C 37 % 26 % 22 % 0 % 0 % 0,0 mm 4,6 m/s (3 Bft) W-SW 247 0 min -3,7 C 10,3 C 7,7 m/s (4 Bft)
2021-04-22 19:40 20,5 C 10,4 C 17,1 C 29,5 C 0,0 C 0,0 C 9,1 C 6,6 C 0,0 C 37 % 26 % 24 % 0 % 0 % 0,0 mm 4,1 m/s (3 Bft) W-NW 292 0 min -3,6 C 10,4 C 5,9 m/s (4 Bft)
2021-04-22 19:35 20,5 C 10,5 C 17,3 C 30,7 C 0,0 C 0,0 C 9,5 C 6,6 C 0,0 C 37 % 26 % 26 % 0 % 0 % 0,0 mm 4,4 m/s (3 Bft) W-NW 292 0 min -3,6 C 10,5 C 3,0 m/s (2 Bft)
2021-04-22 19:30 20,5 C 10,7 C 17,5 C 31,8 C 0,0 C 0,0 C 9,4 C 6,8 C 0,0 C 36 % 26 % 27 % 0 % 0 % 0,0 mm 4,6 m/s (3 Bft) W 270 0 min -3,7 C 10,7 C 6,1 m/s (4 Bft)
2021-04-22 19:25 20,5 C 10,9 C 17,7 C 32,8 C 0,0 C 0,0 C 9,8 C 6,8 C 0,0 C 36 % 26 % 29 % 0 % 0 % 0,0 mm 5,0 m/s (3 Bft) SW 225 0 min -3,6 C 10,9 C 5,0 m/s (3 Bft)
2021-04-22 19:20 20,5 C 10,9 C 17,9 C 33,4 C 0,0 C 0,0 C 9,7 C 7,2 C 0,0 C 36 % 26 % 30 % 0 % 0 % 0,0 mm 4,9 m/s (3 Bft) W 270 0 min -3,6 C 10,9 C 5,7 m/s (4 Bft)
2021-04-22 19:15 20,5 C 11,3 C 18,2 C 34,1 C 0,0 C 0,0 C 10,2 C 7,2 C 0,0 C 34 % 26 % 31 % 0 % 0 % 0,0 mm 5,2 m/s (3 Bft) W 270 0 min -4,0 C 11,3 C 6,5 m/s (4 Bft)
2021-04-22 19:10 20,6 C 11,5 C 18,3 C 34,6 C 0,0 C 0,0 C 10,5 C 7,5 C 0,0 C 34 % 26 % 32 % 0 % 0 % 0,0 mm 5,3 m/s (3 Bft) W 270 0 min -3,8 C 11,5 C 5,4 m/s (3 Bft)
2021-04-22 19:05 20,5 C 11,6 C 18,6 C 35,2 C 0,0 C 0,0 C 10,6 C 7,8 C 0,0 C 32 % 26 % 33 % 0 % 0 % 0,0 mm 4,9 m/s (3 Bft) S-SE 157 0 min -4,5 C 11,6 C 4,5 m/s (3 Bft)
2021-04-22 19:00 20,6 C 11,8 C 18,9 C 35,5 C 0,0 C 0,0 C 10,8 C 8,1 C 0,0 C 32 % 26 % 34 % 0 % 0 % 0,0 mm 4,8 m/s (3 Bft) W-SW 247 0 min -4,3 C 11,8 C 6,8 m/s (4 Bft)
_ Min-Time 03:35 06:00 06:10 00:05 19:00 19:00 06:10 05:40 19:00 14:15 15:45 - 19:00 19:00 - 04:50 - - - 19:05 06:20 23:50
Minimum _ 19,9 C 5,1 C 8,4 C -3,6 C 0,0 C 0,0 C 3,8 C 1,1 C 0,0 C 20 % 24 % - 0 % 0 % - 1,5 m/s (1 Bft) - - - -4,5 C 3,1 C 1,0 m/s (1 Bft)
_ Max-Time 14:50 14:40 14:50 17:30 19:00 19:00 14:20 09:15 19:00 06:10 09:10 17:30 19:00 19:00 19:00 13:45 - - 19:00 06:30 14:40 13:40
Maximum _ 22,2 C 19,9 C 30,1 C 42,8 C 0,0 C 0,0 C 16,9 C 11,6 C 0,0 C 80 % 41 % 45 % 0 % 0 % 0,0 mm 7,3 m/s
W-SW (4 Bft)
- - 0 min 2,2 C 19,9 C 11,7 m/s
W-SW (6 Bft)
Average _ 20,7 C 11,0 C 16,1 C 22,5 C 0,0 C 0,0 C 9,7 C 6,4 C 0,0 C 47 % 32 % #0 min. 0 % 0 % #0,0 mm 3,7 m/s (3 Bft) W-SW - #0 min. -1,2 C 10,2 C 4,2 m/s (3 Bft)